, AZ

(GMT )
Fort Huachuca

Weather History for KALK - January, 2013

Change the Weather History Date:

Sunday, January 6, 2013

  Actual Average Record
Temperature  
Mean Temperature 42 °F -  
Max Temperature 55 °F - - ()
Min Temperature 28 °F - - ()
Degree Days  
Heating Degree Days 24    
Moisture  
Dew Point 18 °F    
Average Humidity 41    
Maximum Humidity 61    
Minimum Humidity 22    
Precipitation  
Precipitation 0.00 in - - ()
Sea Level Pressure  
Sea Level Pressure 30.04 in    
Wind  
Wind Speed 4 mph (ENE)    
Max Wind Speed 17 mph    
Max Gust Speed -    
Averages and records for this station are not official NWS values.
T = Trace of Precipitation, MM = Missing Value Source: NWS Daily Summary

Daily Weather History Graph

Daily Weather History Graph

Search for Another Location

Airport or City:

Trip Planner

Search our weather history database for the weather conditions in past years. The results will help you decide how hot, cold, wet, or windy it might be!

Date:

Astronomy

Jan. 06, 2013 Rise Set
Actual Time 7:22 AM MST 5:33 PM MST
Civil Twilight 6:55 AM MST 6:00 PM MST
Nautical Twilight 6:25 AM MST 6:30 PM MST
Astronomical Twilight 5:55 AM MST 6:59 PM MST
Moon 1:48 AM MST (1/6) 12:56 PM MST (1/6)
Length of Visible Light 11h 04m
Length of Day
10h 11m
Waning Crescent, 32% of the Moon is Illuminated
Jan 6
Waning Crescent
Jan 11
New
Jan 18
First Quarter
Jan 26
Full
Feb 3
Last Quarter

Hourly Weather History & Observations

Time (MST) Temp. Windchill Dew Point Humidity Pressure Visibility Wind Dir Wind Speed Gust Speed Precip Events Conditions
12:56 AM 35.1 °F - 16.0 °F 46% 30.14 in - Calm Calm - N/A   Clear
1:56 AM 33.1 °F - 16.0 °F 50% 30.13 in - Calm Calm - N/A   Clear
2:56 AM 33.1 °F - 16.0 °F 50% 30.12 in - Calm Calm - N/A   Clear
3:56 AM 35.1 °F - 16.0 °F 46% 30.12 in - Calm Calm - N/A   Clear
4:56 AM 34.0 °F - 17.1 °F 50% 30.12 in - Calm Calm - N/A   Clear
5:56 AM 30.0 °F - 17.1 °F 59% 30.15 in - Calm Calm - N/A   Clear
6:56 AM 28.9 °F - 17.1 °F 61% 30.16 in - Calm Calm - N/A   Clear
7:56 AM 28.9 °F 19.8 °F 17.1 °F 61% 30.17 in - ENE 10.4 mph - N/A   Clear
8:56 AM 36.0 °F 33.3 °F 19.0 °F 50% 30.15 in - Variable 3.5 mph - N/A   Clear
9:56 AM 46.9 °F - 15.1 °F 28% 30.12 in - East 13.8 mph - N/A   Clear
10:56 AM 48.9 °F - 16.0 °F 27% 30.10 in - East 17.3 mph - N/A   Clear
11:56 AM 53.1 °F - 15.1 °F 22% 30.05 in - East 15.0 mph - N/A   Clear
12:56 PM 54.0 °F - 16.0 °F 22% 30.00 in - ESE 15.0 mph - N/A   Clear
1:56 PM 55.0 °F - 17.1 °F 23% 29.97 in - East 12.7 mph - N/A   Clear
2:56 PM 55.9 °F - 18.0 °F 23% 29.96 in - East 8.1 mph - N/A   Clear
3:56 PM 54.0 °F - 19.0 °F 25% 29.96 in - ESE 6.9 mph - N/A   Clear
4:56 PM 51.1 °F - 19.9 °F 29% 29.94 in - East 5.8 mph - N/A   Clear
5:56 PM 46.9 °F - 21.0 °F 36% 29.95 in - NE 8.1 mph - N/A   Clear
6:56 PM 45.0 °F 43.5 °F 21.9 °F 40% 29.96 in - ENE 3.5 mph - N/A   Clear
8:56 PM 41.0 °F 38.0 °F 21.0 °F 45% 29.93 in - NNE 4.6 mph - N/A   Clear
9:56 PM 42.1 °F 38.4 °F 21.0 °F 43% 29.88 in - NNW 5.8 mph - N/A   Clear
10:56 PM 39.0 °F 36.8 °F 21.9 °F 50% 29.88 in - WSW 3.5 mph - N/A   Clear
11:56 PM 39.9 °F - 21.0 °F 47% 29.86 in - Calm Calm - N/A   Clear